Location: Pedholt
(56.0260°N, 10.2097°E)
Time: 04:49:51
(UTC+00:00)

Cosmos 1980 Rocket - Pass Details

Date: 14 July 2020
Orbit: 828 x 851 km, 71.0° (Epoch: 14 August)

Event Time Altitude Azimuth Distance (km) Brightness Sun altitude
Rises 01:37:49 0° 324° (NW) 3,431 5.7 -7.4°
Reaches altitude 10° 01:40:18 10° 322° (NW) 2,492 4.9 -7.2°
Maximum altitude 01:45:58 68° 241° (WSW) 916 2.2 -6.8°
Drops below altitude 10° 01:51:36 10° 160° (SSE) 2,471 4.3 -6.4°
Sets 01:54:03 0° 158° (SSE) 3,400 5.0 -6.2°
